Time,TemperatureF,DewpointF,PressureIn,WindDirection,WindDirectionDegrees,WindSpeedMPH,WindSpeedGustMPH,Humidity,HourlyPrecipIn,Conditions,Clouds,dailyrainin,SoftwareType,DateUTC
2013-01-20 00:00:00,39.8,30.5,30.24,ENE,65,3.5,3.5,69,0.00,CLR,,0.00,WeatherDisplay:10.37,2013-01-20 08:00:00,
2013-01-20 00:06:00,40.0,30.3,30.23,ENE,65,2.3,2.3,68,0.00,CLR,,0.00,WeatherDisplay:10.37,2013-01-20 08:06:00,
2013-01-20 00:11:00,39.8,30.1,30.24,ENE,63,2.3,2.3,68,0.00,CLR,,0.00,WeatherDisplay:10.37,2013-01-20 08:11:00,
2013-01-20 00:16:00,39.7,30.0,30.24,ENE,65,1.1,1.1,68,0.00,CLR,,0.00,WeatherDisplay:10.37,2013-01-20 08:16:00,
2013-01-20 00:21:00,39.3,30.0,30.24,ENE,65,0.0,0.0,69,0.00,CLR,,0.00,WeatherDisplay:10.37,2013-01-20 08:21:00,
2013-01-20 00:26:00,39.2,29.9,30.24,ENE,65,0.0,0.0,69,0.00,CLR,,0.00,WeatherDisplay:10.37,2013-01-20 08:26:00,
2013-01-20 00:31:00,39.1,29.8,30.24,ENE,65,0.0,0.0,69,0.00,CLR,,0.00,WeatherDisplay:10.37,2013-01-20 08:31:00,
2013-01-20 00:36:00,39.3,30.3,30.24,ENE,65,0.0,0.0,70,0.00,CLR,,0.00,WeatherDisplay:10.37,2013-01-20 08:36:00,
2013-01-20 00:41:00,39.3,30.0,30.24,ENE,65,0.0,0.0,69,0.00,CLR,,0.00,WeatherDisplay:10.37,2013-01-20 08:41:00,
2013-01-20 00:46:00,39.2,29.9,30.24,ENE,65,0.0,0.0,69,0.00,CLR,,0.00,WeatherDisplay:10.37,2013-01-20 08:46:00,
2013-01-20 00:51:00,38.8,29.8,30.24,ENE,65,0.0,0.0,70,0.00,CLR,,0.00,WeatherDisplay:10.37,2013-01-20 08:51:00,
2013-01-20 00:56:00,38.0,29.8,30.24,ENE,65,0.0,0.0,72,0.00,CLR,,0.00,WeatherDisplay:10.37,2013-01-20 08:56:00,
2013-01-20 01:01:00,37.5,29.6,30.24,ENE,65,0.0,0.0,73,0.00,CLR,,0.00,WeatherDisplay:10.37,2013-01-20 09:01:00,
2013-01-20 01:06:00,37.3,29.8,30.24,ENE,65,1.1,1.1,74,0.00,CLR,,0.00,WeatherDisplay:10.37,2013-01-20 09:06:00,
2013-01-20 01:11:00,37.0,29.8,30.24,ENE,65,0.0,0.0,75,0.00,CLR,,0.00,WeatherDisplay:10.37,2013-01-20 09:11:00,
2013-01-20 01:16:00,36.9,29.7,30.24,ENE,65,0.0,0.0,75,0.00,CLR,,0.00,WeatherDisplay:10.37,2013-01-20 09:16:00,
2013-01-20 01:21:00,36.0,28.8,30.24,ENE,65,0.0,0.0,75,0.00,CLR,,0.00,WeatherDisplay:10.37,2013-01-20 09:21:00,
2013-01-20 01:27:00,35.2,29.0,30.24,ENE,65,0.0,0.0,78,0.00,CLR,,0.00,WeatherDisplay:10.37,2013-01-20 09:27:00,
2013-01-20 01:32:00,35.4,29.8,30.24,ENE,65,0.0,0.0,80,0.00,CLR,,0.00,WeatherDisplay:10.37,2013-01-20 09:32:00,
2013-01-20 01:37:00,35.9,30.0,30.24,ENE,65,0.0,0.0,79,0.00,CLR,,0.00,WeatherDisplay:10.37,2013-01-20 09:37:00,
2013-01-20 01:42:00,35.5,29.3,30.24,ENE,65,0.0,0.0,78,0.00,CLR,,0.00,WeatherDisplay:10.37,2013-01-20 09:42:00,
2013-01-20 01:47:00,35.2,29.3,30.24,ENE,68,0.0,0.0,79,0.00,CLR,,0.00,WeatherDisplay:10.37,2013-01-20 09:47:00,
2013-01-20 01:52:00,35.4,29.5,30.24,ENE,68,0.0,0.0,79,0.00,CLR,,0.00,WeatherDisplay:10.37,2013-01-20 09:52:00,
2013-01-20 01:57:00,34.8,29.0,30.24,ENE,68,0.0,0.0,79,0.00,CLR,,0.00,WeatherDisplay:10.37,2013-01-20 09:57:00,
2013-01-20 02:02:00,34.9,29.4,30.24,ENE,68,0.0,0.0,80,0.00,CLR,,0.00,WeatherDisplay:10.37,2013-01-20 10:02:00,
2013-01-20 02:07:00,35.7,29.8,30.24,ENE,65,0.0,0.0,79,0.00,CLR,,0.00,WeatherDisplay:10.37,2013-01-20 10:07:00,
2013-01-20 02:12:00,36.6,29.7,30.24,ENE,65,0.0,0.0,76,0.00,CLR,,0.00,WeatherDisplay:10.37,2013-01-20 10:12:00,
2013-01-20 02:17:00,36.8,29.6,30.24,ENE,65,0.0,0.0,75,0.00,CLR,,0.00,WeatherDisplay:10.37,2013-01-20 10:17:00,
2013-01-20 02:22:00,36.7,29.5,30.24,ENE,65,0.0,0.0,75,0.00,CLR,,0.00,WeatherDisplay:10.37,2013-01-20 10:22:00,
2013-01-20 02:27:00,36.4,29.2,30.25,WSW,248,0.0,0.0,75,0.00,CLR,,0.00,WeatherDisplay:10.37,2013-01-20 10:27:00,
2013-01-20 02:33:00,35.9,29.4,30.25,SW,224,0.0,0.0,77,0.00,CLR,,0.00,WeatherDisplay:10.37,2013-01-20 10:33:00,
2013-01-20 02:38:00,35.2,29.0,30.25,SSW,203,0.0,0.0,78,0.00,CLR,,0.00,WeatherDisplay:10.37,2013-01-20 10:38:00,
2013-01-20 02:43:00,34.7,28.9,30.25,SSW,208,0.0,0.0,79,0.00,CLR,,0.00,WeatherDisplay:10.37,2013-01-20 10:43:00,
2013-01-20 02:48:00,34.3,28.8,30.25,SW,236,0.0,0.0,80,0.00,CLR,,0.00,WeatherDisplay:10.37,2013-01-20 10:48:00,
2013-01-20 02:53:00,34.0,28.5,30.25,WSW,237,0.0,0.0,80,0.00,CLR,,0.00,WeatherDisplay:10.37,2013-01-20 10:53:00,
2013-01-20 02:59:00,33.8,28.3,30.25,WSW,237,0.0,0.0,80,0.00,CLR,,0.00,WeatherDisplay:10.37,2013-01-20 10:59:00,
2013-01-20 03:04:00,33.6,28.4,30.25,WSW,238,0.0,0.0,81,0.00,CLR,,0.00,WeatherDisplay:10.37,2013-01-20 11:04:00,
2013-01-20 03:09:00,33.4,28.5,30.25,WSW,238,0.0,0.0,82,0.00,CLR,,0.00,WeatherDisplay:10.37,2013-01-20 11:09:00,
2013-01-20 03:14:00,33.4,28.8,30.25,WSW,237,0.0,0.0,83,0.00,CLR,,0.00,WeatherDisplay:10.37,2013-01-20 11:14:00,
2013-01-20 03:19:00,33.4,28.8,30.25,WSW,240,0.0,0.0,83,0.00,CLR,,0.00,WeatherDisplay:10.37,2013-01-20 11:19:00,
2013-01-20 03:25:00,32.5,27.9,30.25,ENE,63,1.1,1.1,83,0.00,CLR,,0.00,WeatherDisplay:10.37,2013-01-20 11:25:00,
2013-01-20 03:30:00,32.5,28.2,30.24,NNE,18,2.3,2.3,84,0.00,CLR,,0.00,WeatherDisplay:10.37,2013-01-20 11:30:00,
2013-01-20 03:35:00,32.1,28.1,30.24,NNW,338,1.1,1.1,85,0.00,CLR,,0.00,WeatherDisplay:10.37,2013-01-20 11:35:00,
2013-01-20 03:40:00,32.4,28.1,30.24,NNW,339,2.3,2.3,84,0.00,CLR,,0.00,WeatherDisplay:10.37,2013-01-20 11:40:00,
2013-01-20 03:45:00,33.0,29.0,30.24,NW,320,2.3,2.3,85,0.00,CLR,,0.00,WeatherDisplay:10.37,2013-01-20 11:45:00,
2013-01-20 03:50:00,33.5,28.9,30.24,NNW,340,3.5,3.5,83,0.00,CLR,,0.00,WeatherDisplay:10.37,2013-01-20 11:50:00,
2013-01-20 03:55:00,33.3,28.7,30.24,NW,311,2.3,2.3,83,0.00,CLR,,0.00,WeatherDisplay:10.37,2013-01-20 11:55:00,
2013-01-20 04:00:00,33.1,27.9,30.24,NW,326,3.5,3.5,81,0.00,CLR,,0.00,WeatherDisplay:10.37,2013-01-20 12:00:00,
2013-01-20 04:05:00,32.5,27.3,30.24,NNE,22,3.5,3.5,81,0.00,CLR,,0.00,WeatherDisplay:10.37,2013-01-20 12:05:00,
2013-01-20 04:10:00,32.9,28.3,30.24,North,9,2.3,2.3,83,0.00,CLR,,0.00,WeatherDisplay:10.37,2013-01-20 12:10:00,
2013-01-20 04:15:00,33.5,28.6,30.24,NNE,33,2.3,2.3,82,0.00,CLR,,0.00,WeatherDisplay:10.37,2013-01-20 12:15:00,
2013-01-20 04:21:00,34.2,28.7,30.24,ENE,65,2.3,2.3,80,0.00,CLR,,0.00,WeatherDisplay:10.37,2013-01-20 12:21:00,
2013-01-20 04:26:00,34.7,28.5,30.24,ENE,65,1.1,1.1,78,0.00,CLR,,0.00,WeatherDisplay:10.37,2013-01-20 12:26:00,
2013-01-20 04:31:00,34.7,28.5,30.23,ENE,67,1.1,1.1,78,0.00,CLR,,0.00,WeatherDisplay:10.37,2013-01-20 12:31:00,
2013-01-20 04:36:00,34.3,28.5,30.24,ENE,67,0.0,0.0,79,0.00,CLR,,0.00,WeatherDisplay:10.37,2013-01-20 12:36:00,
2013-01-20 04:41:00,34.9,28.7,30.23,ENE,66,1.1,0.0,78,0.00,CLR,,0.00,WeatherDisplay:10.37,2013-01-20 12:41:00,
2013-01-20 04:46:00,35.5,28.7,30.23,East,79,2.3,2.3,76,0.00,CLR,,0.00,WeatherDisplay:10.37,2013-01-20 12:46:00,
2013-01-20 04:51:00,35.8,28.6,30.23,ENE,75,3.5,3.5,75,0.00,CLR,,0.00,WeatherDisplay:10.37,2013-01-20 12:51:00,
2013-01-20 04:56:00,35.6,28.5,30.23,WSW,245,2.3,2.3,75,0.00,CLR,,0.00,WeatherDisplay:10.37,2013-01-20 12:56:00,
2013-01-20 05:01:00,35.0,28.2,30.23,WSW,243,0.0,0.0,76,0.00,CLR,,0.00,WeatherDisplay:10.37,2013-01-20 13:01:00,
2013-01-20 05:06:00,34.5,28.0,30.23,WSW,243,0.0,0.0,77,0.00,CLR,,0.00,WeatherDisplay:10.37,2013-01-20 13:06:00,
2013-01-20 05:11:00,34.7,28.2,30.23,WSW,245,0.0,0.0,77,0.00,CLR,,0.00,WeatherDisplay:10.37,2013-01-20 13:11:00,
2013-01-20 05:17:00,35.0,28.2,30.23,WSW,245,0.0,0.0,76,0.00,CLR,,0.00,WeatherDisplay:10.37,2013-01-20 13:17:00,
2013-01-20 05:22:00,35.4,28.6,30.23,WSW,246,2.0,2.0,76,0.00,CLR,,0.00,WeatherDisplay:10.37,2013-01-20 13:22:00,
2013-01-20 05:27:00,36.0,28.5,30.23,WSW,246,0.0,0.0,74,0.00,CLR,,0.00,WeatherDisplay:10.37,2013-01-20 13:27:00,
2013-01-20 05:32:00,36.1,28.6,30.23,NE,47,1.0,1.0,74,0.00,CLR,,0.00,WeatherDisplay:10.37,2013-01-20 13:32:00,
2013-01-20 05:37:00,35.9,28.4,30.23,NE,47,1.1,0.0,74,0.00,CLR,,0.00,WeatherDisplay:10.37,2013-01-20 13:37:00,
2013-01-20 05:43:00,35.4,28.3,30.23,NE,47,1.1,0.0,75,0.00,CLR,,0.00,WeatherDisplay:10.37,2013-01-20 13:43:00,
2013-01-20 05:48:00,35.4,28.3,30.23,NE,47,0.0,0.0,75,0.00,CLR,,0.00,WeatherDisplay:10.37,2013-01-20 13:48:00,
2013-01-20 05:53:00,35.3,28.2,30.23,NE,47,0.0,0.0,75,0.00,CLR,,0.00,WeatherDisplay:10.37,2013-01-20 13:53:00,
2013-01-20 05:58:00,35.0,27.9,30.23,NE,47,0.0,0.0,75,0.00,CLR,,0.00,WeatherDisplay:10.37,2013-01-20 13:58:00,
2013-01-20 06:04:00,35.3,28.2,30.23,NE,47,0.0,0.0,75,0.00,CLR,,0.00,WeatherDisplay:10.37,2013-01-20 14:04:00,
2013-01-20 06:09:00,35.5,28.4,30.22,NE,47,1.0,1.0,75,0.00,CLR,,0.00,WeatherDisplay:10.37,2013-01-20 14:09:00,
2013-01-20 06:14:00,35.7,28.2,30.22,NE,48,0.0,0.0,74,0.00,CLR,,0.00,WeatherDisplay:10.37,2013-01-20 14:14:00,
2013-01-20 06:19:00,35.6,28.1,30.22,NE,49,0.0,0.0,74,0.00,CLR,,0.00,WeatherDisplay:10.37,2013-01-20 14:19:00,
2013-01-20 06:24:00,35.3,27.8,30.22,NE,50,0.0,0.0,74,0.00,CLR,,0.00,WeatherDisplay:10.37,2013-01-20 14:24:00,
2013-01-20 06:30:00,34.1,27.3,30.23,SW,233,2.3,2.3,76,0.00,CLR,,0.00,WeatherDisplay:10.37,2013-01-20 14:30:00,
2013-01-20 06:35:00,33.0,27.2,30.22,SW,217,1.1,1.1,79,0.00,CLR,,0.00,WeatherDisplay:10.37,2013-01-20 14:35:00,
2013-01-20 06:40:00,32.8,27.3,30.23,SW,219,1.1,1.1,80,0.00,CLR,,0.00,WeatherDisplay:10.37,2013-01-20 14:40:00,
2013-01-20 06:45:00,32.1,27.2,30.23,SW,231,2.0,2.0,82,0.00,CLR,,0.00,WeatherDisplay:10.37,2013-01-20 14:45:00,
2013-01-20 06:50:00,31.5,26.9,30.23,SW,232,3.5,3.5,83,0.00,CLR,,0.00,WeatherDisplay:10.37,2013-01-20 14:50:00,
2013-01-20 06:55:00,31.3,26.7,30.23,SW,228,2.3,2.3,83,0.00,CLR,,0.00,WeatherDisplay:10.37,2013-01-20 14:55:00,
2013-01-20 07:00:00,31.2,26.9,30.23,SW,226,2.3,2.3,84,0.00,CLR,,0.00,WeatherDisplay:10.37,2013-01-20 15:00:00,
2013-01-20 07:06:00,31.2,27.2,30.23,SW,228,1.1,0.0,85,0.00,CLR,,0.00,WeatherDisplay:10.37,2013-01-20 15:06:00,
2013-01-20 07:11:00,31.3,27.3,30.22,SW,231,2.3,2.3,85,0.00,CLR,,0.00,WeatherDisplay:10.37,2013-01-20 15:11:00,
2013-01-20 07:16:00,31.3,27.0,30.23,SW,236,1.1,1.1,84,0.00,CLR,,0.00,WeatherDisplay:10.37,2013-01-20 15:16:00,
2013-01-20 07:21:00,31.2,27.2,30.23,SW,236,1.1,1.1,85,0.00,CLR,,0.00,WeatherDisplay:10.37,2013-01-20 15:21:00,
2013-01-20 07:26:00,31.2,27.2,30.23,WSW,237,1.1,1.1,85,0.00,CLR,,0.00,WeatherDisplay:10.37,2013-01-20 15:26:00,
2013-01-20 07:31:00,31.4,27.4,30.23,WSW,239,1.1,1.1,85,0.00,CLR,,0.00,WeatherDisplay:10.37,2013-01-20 15:31:00,
2013-01-20 07:36:00,31.4,27.4,30.23,SW,232,2.3,2.3,85,0.00,CLR,,0.00,WeatherDisplay:10.37,2013-01-20 15:36:00,
2013-01-20 07:41:00,31.5,27.5,30.23,SW,232,1.1,1.1,85,0.00,CLR,,0.00,WeatherDisplay:10.37,2013-01-20 15:41:00,
2013-01-20 07:46:00,30.6,25.5,30.23,East,82,2.3,2.3,81,0.00,CLR,,0.00,WeatherDisplay:10.37,2013-01-20 15:46:00,
2013-01-20 07:52:00,29.2,25.3,30.23,East,82,1.1,1.1,85,0.00,CLR,,0.00,WeatherDisplay:10.37,2013-01-20 15:52:00,
2013-01-20 07:57:00,29.3,25.9,30.23,East,82,0.0,0.0,87,0.00,CLR,,0.00,WeatherDisplay:10.37,2013-01-20 15:57:00,
2013-01-20 08:02:00,30.1,27.0,30.23,East,82,0.0,0.0,88,0.00,CLR,,0.00,WeatherDisplay:10.37,2013-01-20 16:02:00,
2013-01-20 08:07:00,30.2,26.8,30.23,East,82,0.0,0.0,87,0.00,CLR,,0.00,WeatherDisplay:10.37,2013-01-20 16:07:00,
2013-01-20 08:13:00,30.7,27.3,30.23,SSE,156,1.1,1.1,87,0.00,CLR,,0.00,WeatherDisplay:10.37,2013-01-20 16:13:00,
2013-01-20 08:18:00,31.7,28.3,30.23,SSE,156,1.1,0.0,87,0.00,CLR,,0.00,WeatherDisplay:10.37,2013-01-20 16:18:00,
2013-01-20 08:23:00,32.8,29.1,30.23,SSW,208,1.1,1.1,86,0.00,CLR,,0.00,WeatherDisplay:10.37,2013-01-20 16:23:00,
2013-01-20 08:28:00,34.0,29.7,30.23,SSW,203,2.3,2.3,84,0.00,CLR,,0.00,WeatherDisplay:10.37,2013-01-20 16:28:00,
2013-01-20 08:34:00,35.2,30.0,30.24,SSE,167,2.3,2.3,81,0.00,CLR,,0.00,WeatherDisplay:10.37,2013-01-20 16:34:00,
2013-01-20 08:39:00,36.3,30.1,30.24,SSE,167,2.3,2.3,78,0.00,CLR,,0.00,WeatherDisplay:10.37,2013-01-20 16:39:00,
2013-01-20 08:44:00,36.7,30.2,30.24,SSW,208,2.3,2.3,77,0.00,CLR,,0.00,WeatherDisplay:10.37,2013-01-20 16:44:00,
2013-01-20 08:49:00,37.0,30.5,30.24,SW,225,2.3,2.3,77,0.00,CLR,,0.00,WeatherDisplay:10.37,2013-01-20 16:49:00,
2013-01-20 08:54:00,37.3,30.4,30.24,SSW,204,2.3,2.3,76,0.00,CLR,,0.00,WeatherDisplay:10.37,2013-01-20 16:54:00,
2013-01-20 08:59:00,38.0,30.8,30.24,SSW,210,2.3,2.3,75,0.00,CLR,,0.00,WeatherDisplay:10.37,2013-01-20 16:59:00,
2013-01-20 09:05:00,38.7,30.8,30.24,SSW,206,2.0,2.0,73,0.00,CLR,,0.00,WeatherDisplay:10.37,2013-01-20 17:05:00,
2013-01-20 09:10:00,39.4,31.1,30.24,South,170,2.3,2.3,72,0.00,CLR,,0.00,WeatherDisplay:10.37,2013-01-20 17:10:00,
2013-01-20 09:15:00,40.0,31.7,30.24,SSE,167,3.5,3.5,72,0.00,CLR,,0.00,WeatherDisplay:10.37,2013-01-20 17:15:00,
2013-01-20 09:20:00,40.7,32.4,30.24,SSW,198,1.1,1.1,72,0.00,CLR,,0.00,WeatherDisplay:10.37,2013-01-20 17:20:00,
2013-01-20 09:25:00,41.3,32.6,30.24,SSE,159,2.0,2.2,71,0.00,CLR,,0.00,WeatherDisplay:10.37,2013-01-20 17:25:00,
2013-01-20 09:30:00,42.0,32.9,30.24,SW,226,2.3,2.3,70,0.00,CLR,,0.00,WeatherDisplay:10.37,2013-01-20 17:30:00,
2013-01-20 09:35:00,42.7,33.2,30.24,SSW,205,3.5,3.5,69,0.00,CLR,,0.00,WeatherDisplay:10.37,2013-01-20 17:35:00,
2013-01-20 09:40:00,43.6,33.4,30.24,SW,214,2.3,2.3,67,0.00,CLR,,0.00,WeatherDisplay:10.37,2013-01-20 17:40:00,
2013-01-20 09:46:00,44.6,33.2,30.24,SSW,203,3.5,3.5,64,0.00,CLR,,0.00,WeatherDisplay:10.37,2013-01-20 17:46:00,
2013-01-20 09:51:00,45.3,34.2,30.24,SSW,207,3.5,3.5,65,0.00,CLR,,0.00,WeatherDisplay:10.37,2013-01-20 17:51:00,
2013-01-20 09:56:00,46.1,33.4,30.25,SSW,204,3.5,3.5,61,0.00,CLR,,0.00,WeatherDisplay:10.37,2013-01-20 17:56:00,
2013-01-20 10:02:00,46.9,33.3,30.25,South,181,3.5,3.5,59,0.00,CLR,,0.00,WeatherDisplay:10.37,2013-01-20 18:02:00,
2013-01-20 10:07:00,47.5,34.7,30.24,SSE,160,4.6,4.6,61,0.00,CLR,,0.00,WeatherDisplay:10.37,2013-01-20 18:07:00,
2013-01-20 10:12:00,48.2,35.0,30.24,South,176,3.5,3.5,60,0.00,CLR,,0.00,WeatherDisplay:10.37,2013-01-20 18:12:00,
2013-01-20 10:17:00,48.8,35.1,30.24,SSE,162,3.5,3.5,59,0.00,CLR,,0.00,WeatherDisplay:10.37,2013-01-20 18:17:00,
2013-01-20 10:22:00,49.6,35.4,30.24,SSE,154,3.5,3.5,58,0.00,CLR,,0.00,WeatherDisplay:10.37,2013-01-20 18:22:00,
2013-01-20 10:27:00,50.6,35.5,30.24,SSE,158,3.5,3.5,56,0.00,CLR,,0.00,WeatherDisplay:10.37,2013-01-20 18:27:00,
2013-01-20 10:32:00,51.4,35.3,30.24,SSE,168,6.9,6.9,54,0.00,CLR,,0.00,WeatherDisplay:10.37,2013-01-20 18:32:00,
2013-01-20 10:38:00,51.8,35.7,30.23,SSE,150,4.6,4.6,54,0.00,CLR,,0.00,WeatherDisplay:10.37,2013-01-20 18:38:00,
2013-01-20 10:43:00,52.3,35.7,30.23,SSE,166,5.0,5.0,53,0.00,CLR,,0.00,WeatherDisplay:10.37,2013-01-20 18:43:00,
2013-01-20 10:48:00,53.0,35.3,30.23,SE,139,5.8,5.8,51,0.00,CLR,,0.00,WeatherDisplay:10.37,2013-01-20 18:48:00,
2013-01-20 10:53:00,53.9,35.7,30.23,SE,142,4.6,4.6,50,0.00,CLR,,0.00,WeatherDisplay:10.37,2013-01-20 18:53:00,
2013-01-20 10:58:00,54.5,36.7,30.23,South,183,3.5,3.5,51,0.00,CLR,,0.00,WeatherDisplay:10.37,2013-01-20 18:58:00,
2013-01-20 11:04:00,55.3,36.5,30.23,SE,139,2.3,2.3,49,0.00,CLR,,0.00,WeatherDisplay:10.37,2013-01-20 19:04:00,
2013-01-20 11:09:00,55.8,36.4,30.22,SE,141,3.0,3.0,48,0.00,CLR,,0.00,WeatherDisplay:10.37,2013-01-20 19:09:00,
2013-01-20 11:14:00,56.6,35.5,30.22,SSW,208,5.8,5.8,45,0.00,CLR,,0.00,WeatherDisplay:10.37,2013-01-20 19:14:00,
2013-01-20 11:19:00,57.1,35.9,30.22,SSE,154,3.5,3.5,45,0.00,CLR,,0.00,WeatherDisplay:10.37,2013-01-20 19:19:00,
2013-01-20 11:24:00,57.6,35.2,30.22,SSE,161,4.6,4.6,43,0.00,CLR,,0.00,WeatherDisplay:10.37,2013-01-20 19:24:00,
2013-01-20 11:29:00,58.3,35.3,30.21,SSE,149,3.5,3.5,42,0.00,CLR,,0.00,WeatherDisplay:10.37,2013-01-20 19:29:00,
2013-01-20 11:34:00,58.8,35.1,30.21,SE,124,1.1,1.1,41,0.00,CLR,,0.00,WeatherDisplay:10.37,2013-01-20 19:34:00,
2013-01-20 11:39:00,59.5,34.5,30.21,SSE,165,5.0,5.0,39,0.00,CLR,,0.00,WeatherDisplay:10.37,2013-01-20 19:39:00,
2013-01-20 11:45:00,59.9,34.9,30.21,South,174,4.0,4.0,39,0.00,CLR,,0.00,WeatherDisplay:10.37,2013-01-20 19:45:00,
2013-01-20 11:50:00,60.5,35.4,30.20,SE,143,3.5,3.5,39,0.00,CLR,,0.00,WeatherDisplay:10.37,2013-01-20 19:50:00,
2013-01-20 11:55:00,61.0,35.2,30.20,SSE,156,3.5,3.5,38,0.00,CLR,,0.00,WeatherDisplay:10.37,2013-01-20 19:55:00,
2013-01-20 12:00:00,61.9,36.0,30.20,South,181,4.6,4.6,38,0.00,CLR,,0.00,WeatherDisplay:10.37,2013-01-20 20:00:00,
2013-01-20 12:05:00,62.3,35.0,30.19,SSW,211,2.3,2.7,36,0.00,CLR,,0.00,WeatherDisplay:10.37,2013-01-20 20:05:00,
2013-01-20 12:11:00,62.9,35.5,30.19,SE,143,1.1,1.1,36,0.00,CLR,,0.00,WeatherDisplay:10.37,2013-01-20 20:11:00,
2013-01-20 12:16:00,63.4,35.2,30.19,SE,124,1.1,1.1,35,0.00,CLR,,0.00,WeatherDisplay:10.37,2013-01-20 20:16:00,
2013-01-20 12:21:00,63.3,35.2,30.18,ESE,120,3.5,3.5,35,0.00,CLR,,0.00,WeatherDisplay:10.37,2013-01-20 20:21:00,
2013-01-20 12:26:00,63.6,34.7,30.18,ESE,122,2.3,2.3,34,0.00,CLR,,0.00,WeatherDisplay:10.37,2013-01-20 20:26:00,
2013-01-20 12:31:00,63.9,35.7,30.18,SE,138,2.3,2.3,35,0.00,CLR,,0.00,WeatherDisplay:10.37,2013-01-20 20:31:00,
2013-01-20 12:36:00,64.7,35.7,30.18,SSE,160,3.5,3.5,34,0.00,CLR,,0.00,WeatherDisplay:10.37,2013-01-20 20:36:00,
2013-01-20 12:41:00,65.2,36.1,30.18,SSE,147,1.1,1.1,34,0.00,CLR,,0.00,WeatherDisplay:10.37,2013-01-20 20:41:00,
2013-01-20 12:46:00,65.6,35.7,30.17,SE,134,1.1,1.1,33,0.00,CLR,,0.00,WeatherDisplay:10.37,2013-01-20 20:46:00,
2013-01-20 12:51:00,65.6,35.7,30.17,SE,139,3.5,3.5,33,0.00,CLR,,0.00,WeatherDisplay:10.37,2013-01-20 20:51:00,
2013-01-20 12:57:00,66.0,35.3,30.16,SSE,152,2.3,2.3,32,0.00,CLR,,0.00,WeatherDisplay:10.37,2013-01-20 20:57:00,
2013-01-20 13:02:00,66.4,34.8,30.16,SSE,156,2.3,2.3,31,0.00,CLR,,0.00,WeatherDisplay:10.37,2013-01-20 21:02:00,
2013-01-20 13:07:00,66.3,34.7,30.16,SE,132,2.3,2.3,31,0.00,CLR,,0.00,WeatherDisplay:10.37,2013-01-20 21:07:00,
2013-01-20 13:12:00,66.6,34.2,30.16,SSW,203,2.3,2.3,30,0.00,CLR,,0.00,WeatherDisplay:10.37,2013-01-20 21:12:00,
2013-01-20 13:17:00,66.8,35.2,30.15,South,170,3.5,3.5,31,0.00,CLR,,0.00,WeatherDisplay:10.37,2013-01-20 21:17:00,
2013-01-20 13:23:00,67.1,34.6,30.15,South,188,3.5,3.5,30,0.00,CLR,,0.00,WeatherDisplay:10.37,2013-01-20 21:23:00,
2013-01-20 13:28:00,67.3,34.8,30.15,ESE,120,2.3,2.3,30,0.00,CLR,,0.00,WeatherDisplay:10.37,2013-01-20 21:28:00,
2013-01-20 13:33:00,67.4,34.0,30.15,SSW,200,4.6,4.6,29,0.00,CLR,,0.00,WeatherDisplay:10.37,2013-01-20 21:33:00,
2013-01-20 13:38:00,67.9,34.4,30.14,South,190,3.5,3.5,29,0.00,CLR,,0.00,WeatherDisplay:10.37,2013-01-20 21:38:00,
2013-01-20 13:44:00,68.4,34.9,30.14,SSW,198,1.1,1.1,29,0.00,CLR,,0.00,WeatherDisplay:10.37,2013-01-20 21:44:00,
2013-01-20 13:49:00,68.9,34.4,30.14,SSW,211,3.5,3.5,28,0.00,CLR,,0.00,WeatherDisplay:10.37,2013-01-20 21:49:00,
2013-01-20 13:54:00,69.2,33.8,30.14,SSE,162,2.3,2.3,27,0.00,CLR,,0.00,WeatherDisplay:10.37,2013-01-20 21:54:00,
2013-01-20 13:59:00,69.3,36.5,30.14,SE,143,5.8,5.8,30,0.00,CLR,,0.00,WeatherDisplay:10.37,2013-01-20 21:59:00,
2013-01-20 14:04:00,69.6,35.9,30.14,SW,215,3.5,3.5,29,0.00,CLR,,0.00,WeatherDisplay:10.37,2013-01-20 22:04:00,
2013-01-20 14:09:00,69.6,36.8,30.14,SW,221,4.6,4.6,30,0.00,CLR,,0.00,WeatherDisplay:10.37,2013-01-20 22:09:00,
2013-01-20 14:14:00,69.8,36.1,30.13,SW,214,4.6,4.6,29,0.00,CLR,,0.00,WeatherDisplay:10.37,2013-01-20 22:14:00,
2013-01-20 14:19:00,69.8,36.9,30.13,SSW,197,4.6,4.6,30,0.00,CLR,,0.00,WeatherDisplay:10.37,2013-01-20 22:19:00,
2013-01-20 14:24:00,69.9,37.9,30.13,SSW,208,5.0,5.0,31,0.00,CLR,,0.00,WeatherDisplay:10.37,2013-01-20 22:24:00,
2013-01-20 14:29:00,69.2,37.3,30.13,South,181,3.5,3.5,31,0.00,CLR,,0.00,WeatherDisplay:10.37,2013-01-20 22:29:00,
2013-01-20 14:34:00,69.0,36.3,30.12,SSE,160,4.6,4.6,30,0.00,CLR,,0.00,WeatherDisplay:10.37,2013-01-20 22:34:00,
2013-01-20 14:40:00,69.0,37.1,30.12,SSW,208,4.6,4.6,31,0.00,CLR,,0.00,WeatherDisplay:10.37,2013-01-20 22:40:00,
2013-01-20 14:45:00,69.3,37.3,30.13,SE,142,4.6,4.6,31,0.00,CLR,,0.00,WeatherDisplay:10.37,2013-01-20 22:45:00,
2013-01-20 14:50:00,68.8,35.2,30.13,South,169,8.1,8.1,29,0.00,CLR,,0.00,WeatherDisplay:10.37,2013-01-20 22:50:00,
2013-01-20 14:55:00,68.4,35.7,30.12,SSE,152,4.6,4.6,30,0.00,CLR,,0.00,WeatherDisplay:10.37,2013-01-20 22:55:00,
2013-01-20 15:00:00,68.8,36.9,30.12,SSW,193,5.8,5.8,31,0.00,CLR,,0.00,WeatherDisplay:10.37,2013-01-20 23:00:00,
2013-01-20 15:05:00,69.2,37.3,30.13,WSW,239,3.5,3.5,31,0.00,CLR,,0.00,WeatherDisplay:10.37,2013-01-20 23:05:00,
2013-01-20 15:11:00,69.0,36.3,30.13,SSW,210,3.5,3.5,30,0.00,CLR,,0.00,WeatherDisplay:10.37,2013-01-20 23:11:00,
2013-01-20 15:16:00,69.6,36.8,30.13,SSE,152,3.5,3.5,30,0.00,CLR,,0.00,WeatherDisplay:10.37,2013-01-20 23:16:00,
2013-01-20 15:21:00,69.6,35.9,30.13,South,186,4.6,4.6,29,0.00,CLR,,0.00,WeatherDisplay:10.37,2013-01-20 23:21:00,
2013-01-20 15:26:00,69.5,35.8,30.13,SE,143,3.5,3.5,29,0.00,CLR,,0.00,WeatherDisplay:10.37,2013-01-20 23:26:00,
2013-01-20 15:31:00,69.5,35.8,30.13,SSE,148,1.1,1.1,29,0.00,CLR,,0.00,WeatherDisplay:10.37,2013-01-20 23:31:00,
2013-01-20 15:36:00,69.2,37.3,30.14,SSE,151,3.5,3.5,31,0.00,CLR,,0.00,WeatherDisplay:10.37,2013-01-20 23:36:00,
2013-01-20 15:41:00,68.5,36.7,30.14,SSE,162,6.9,6.9,31,0.00,CLR,,0.00,WeatherDisplay:10.37,2013-01-20 23:41:00,
2013-01-20 15:47:00,68.1,37.1,30.14,SE,134,2.3,2.3,32,0.00,CLR,,0.00,WeatherDisplay:10.37,2013-01-20 23:47:00,
2013-01-20 15:52:00,67.7,38.3,30.14,ESE,102,3.5,3.5,34,0.00,CLR,,0.00,WeatherDisplay:10.37,2013-01-20 23:52:00,
2013-01-20 15:58:00,67.3,38.7,30.14,SSE,149,3.5,3.5,35,0.00,CLR,,0.00,WeatherDisplay:10.37,2013-01-20 23:58:00,
2013-01-20 16:03:00,67.0,39.9,30.14,South,176,1.1,1.1,37,0.00,CLR,,0.00,WeatherDisplay:10.37,2013-01-21 00:03:00,
2013-01-20 16:08:00,66.7,39.6,30.14,SE,146,2.3,2.3,37,0.00,CLR,,0.00,WeatherDisplay:10.37,2013-01-21 00:08:00,
2013-01-20 16:13:00,66.4,39.3,30.14,SSE,161,3.5,3.5,37,0.00,CLR,,0.00,WeatherDisplay:10.37,2013-01-21 00:13:00,
2013-01-20 16:18:00,66.2,39.8,30.15,ESE,118,3.5,3.5,38,0.00,CLR,,0.00,WeatherDisplay:10.37,2013-01-21 00:18:00,
2013-01-20 16:23:00,65.9,40.2,30.15,SE,129,2.3,2.3,39,0.00,CLR,,0.00,WeatherDisplay:10.37,2013-01-21 00:23:00,
2013-01-20 16:28:00,65.4,40.4,30.15,SE,134,2.3,2.3,40,0.00,CLR,,0.00,WeatherDisplay:10.37,2013-01-21 00:28:00,
2013-01-20 16:33:00,65.0,40.1,30.15,SE,132,3.5,3.5,40,0.00,CLR,,0.00,WeatherDisplay:10.37,2013-01-21 00:33:00,
2013-01-20 16:38:00,64.4,38.2,30.15,SE,128,1.1,1.1,38,0.00,CLR,,0.00,WeatherDisplay:10.37,2013-01-21 00:38:00,
2013-01-20 16:44:00,63.7,36.9,30.15,SSE,147,3.5,3.5,37,0.00,CLR,,0.00,WeatherDisplay:10.37,2013-01-21 00:44:00,
2013-01-20 16:49:00,62.8,36.8,30.15,South,169,3.5,3.5,38,0.00,CLR,,0.00,WeatherDisplay:10.37,2013-01-21 00:49:00,
2013-01-20 16:54:00,61.9,36.0,30.15,South,176,3.5,3.5,38,0.00,CLR,,0.00,WeatherDisplay:10.37,2013-01-21 00:54:00,
2013-01-20 16:59:00,61.3,35.5,30.15,SE,138,3.5,3.5,38,0.00,CLR,,0.00,WeatherDisplay:10.37,2013-01-21 00:59:00,
2013-01-20 17:04:00,60.8,35.7,30.15,South,185,4.6,4.6,39,0.00,CLR,,0.00,WeatherDisplay:10.37,2013-01-21 01:04:00,
2013-01-20 17:09:00,60.2,35.1,30.15,SSE,162,3.5,3.5,39,0.00,CLR,,0.00,WeatherDisplay:10.37,2013-01-21 01:09:00,
2013-01-20 17:14:00,59.6,35.2,30.15,South,171,3.5,3.5,40,0.00,CLR,,0.00,WeatherDisplay:10.37,2013-01-21 01:14:00,
2013-01-20 17:19:00,59.1,35.4,30.15,SSE,166,3.5,3.5,41,0.00,CLR,,0.00,WeatherDisplay:10.37,2013-01-21 01:19:00,
2013-01-20 17:24:00,58.7,35.0,30.15,SSE,150,1.1,1.1,41,0.00,CLR,,0.00,WeatherDisplay:10.37,2013-01-21 01:24:00,
2013-01-20 17:30:00,58.1,35.7,30.15,SSW,197,1.1,1.1,43,0.00,CLR,,0.00,WeatherDisplay:10.37,2013-01-21 01:30:00,
2013-01-20 17:35:00,57.0,37.5,30.15,WSW,239,2.3,2.3,48,0.00,CLR,,0.00,WeatherDisplay:10.37,2013-01-21 01:35:00,
2013-01-20 17:40:00,56.0,38.1,30.15,WSW,243,2.3,2.3,51,0.00,CLR,,0.00,WeatherDisplay:10.37,2013-01-21 01:40:00,
2013-01-20 17:45:00,55.2,38.4,30.15,SW,233,2.3,2.3,53,0.00,CLR,,0.00,WeatherDisplay:10.37,2013-01-21 01:45:00,
2013-01-20 17:50:00,54.5,38.7,30.15,SW,233,2.3,2.3,55,0.00,CLR,,0.00,WeatherDisplay:10.37,2013-01-21 01:50:00,
2013-01-20 17:55:00,53.8,38.0,30.15,SW,233,1.1,1.1,55,0.00,CLR,,0.00,WeatherDisplay:10.37,2013-01-21 01:55:00,
2013-01-20 18:00:00,52.9,37.6,30.15,SW,219,0.0,0.0,56,0.00,CLR,,0.00,WeatherDisplay:10.37,2013-01-21 02:00:00,
2013-01-20 18:06:00,52.0,37.7,30.15,SW,218,1.1,1.1,58,0.00,CLR,,0.00,WeatherDisplay:10.37,2013-01-21 02:06:00,
2013-01-20 18:12:00,50.8,37.8,30.15,NNW,340,2.3,2.3,61,0.00,CLR,,0.00,WeatherDisplay:10.37,2013-01-21 02:12:00,
2013-01-20 18:17:00,51.3,39.1,30.15,NW,310,1.1,1.1,63,0.00,CLR,,0.00,WeatherDisplay:10.37,2013-01-21 02:17:00,
2013-01-20 18:22:00,51.9,37.6,30.16,NW,310,1.1,1.1,58,0.00,CLR,,0.00,WeatherDisplay:10.37,2013-01-21 02:22:00,
2013-01-20 18:27:00,51.0,37.6,30.16,WSW,252,1.1,1.1,60,0.00,CLR,,0.00,WeatherDisplay:10.37,2013-01-21 02:27:00,
2013-01-20 18:32:00,50.7,38.1,30.16,NNW,331,1.1,1.1,62,0.00,CLR,,0.00,WeatherDisplay:10.37,2013-01-21 02:32:00,
2013-01-20 18:37:00,50.0,37.5,30.16,NNW,332,0.0,0.0,62,0.00,CLR,,0.00,WeatherDisplay:10.37,2013-01-21 02:37:00,
2013-01-20 18:42:00,48.9,37.3,30.16,NNW,333,0.0,0.0,64,0.00,CLR,,0.00,WeatherDisplay:10.37,2013-01-21 02:42:00,
2013-01-20 18:47:00,48.7,37.1,30.17,NNW,333,1.1,1.1,64,0.00,CLR,,0.00,WeatherDisplay:10.37,2013-01-21 02:47:00,
2013-01-20 18:53:00,47.9,36.7,30.17,NNW,333,1.1,1.1,65,0.00,CLR,,0.00,WeatherDisplay:10.37,2013-01-21 02:53:00,
2013-01-20 18:58:00,47.7,36.9,30.17,NNW,333,1.1,1.1,66,0.00,CLR,,0.00,WeatherDisplay:10.37,2013-01-21 02:58:00,
2013-01-20 19:03:00,47.3,36.9,30.17,NNW,333,0.0,0.0,67,0.00,CLR,,0.00,WeatherDisplay:10.37,2013-01-21 03:03:00,
2013-01-20 19:08:00,47.1,37.1,30.17,NNW,333,0.0,0.5,68,0.00,CLR,,0.00,WeatherDisplay:10.37,2013-01-21 03:08:00,
2013-01-20 19:13:00,47.2,37.2,30.17,NNW,329,0.0,0.0,68,0.00,CLR,,0.00,WeatherDisplay:10.37,2013-01-21 03:13:00,
2013-01-20 19:18:00,46.7,37.1,30.17,NNW,329,1.1,0.0,69,0.00,CLR,,0.00,WeatherDisplay:10.37,2013-01-21 03:18:00,
2013-01-20 19:23:00,45.6,35.6,30.17,NNW,330,1.1,0.0,68,0.00,CLR,,0.00,WeatherDisplay:10.37,2013-01-21 03:23:00,
2013-01-20 19:28:00,44.9,36.4,30.18,NNW,330,0.0,0.0,72,0.00,CLR,,0.00,WeatherDisplay:10.37,2013-01-21 03:28:00,
2013-01-20 19:34:00,44.7,36.9,30.18,NNW,330,1.1,1.1,74,0.00,CLR,,0.00,WeatherDisplay:10.37,2013-01-21 03:34:00,
2013-01-20 19:39:00,44.8,36.7,30.18,NNW,330,0.0,0.0,73,0.00,CLR,,0.00,WeatherDisplay:10.37,2013-01-21 03:39:00,
2013-01-20 19:44:00,44.3,36.2,30.18,NNW,330,0.0,0.0,73,0.00,CLR,,0.00,WeatherDisplay:10.37,2013-01-21 03:44:00,
2013-01-20 19:49:00,44.0,35.9,30.18,NNW,344,0.0,0.0,73,0.00,CLR,,0.00,WeatherDisplay:10.37,2013-01-21 03:49:00,
2013-01-20 19:55:00,43.3,36.2,30.18,NNW,345,0.0,0.0,76,0.00,CLR,,0.00,WeatherDisplay:10.37,2013-01-21 03:55:00,
2013-01-20 20:00:00,43.0,36.0,30.18,NNW,345,0.0,0.0,76,0.00,CLR,,0.00,WeatherDisplay:10.37,2013-01-21 04:00:00,
2013-01-20 20:05:00,42.7,35.7,30.18,NNW,345,0.0,0.0,76,0.00,CLR,,0.00,WeatherDisplay:10.37,2013-01-21 04:05:00,
2013-01-20 20:10:00,42.4,36.0,30.19,NNW,345,1.1,1.1,78,0.00,CLR,,0.00,WeatherDisplay:10.37,2013-01-21 04:10:00,
2013-01-20 20:15:00,43.3,36.9,30.19,NNW,336,1.1,1.1,78,0.00,CLR,,0.00,WeatherDisplay:10.37,2013-01-21 04:15:00,
2013-01-20 20:20:00,44.7,37.3,30.19,NNW,331,1.1,1.1,75,0.00,CLR,,0.00,WeatherDisplay:10.37,2013-01-21 04:20:00,
2013-01-20 20:25:00,44.3,35.5,30.19,NNW,332,1.1,0.0,71,0.00,CLR,,0.00,WeatherDisplay:10.37,2013-01-21 04:25:00,
2013-01-20 20:30:00,43.3,34.9,30.19,NNW,332,0.0,0.0,72,0.00,CLR,,0.00,WeatherDisplay:10.37,2013-01-21 04:30:00,
2013-01-20 20:36:00,42.6,35.6,30.19,NNW,330,2.3,2.3,76,0.00,CLR,,0.00,WeatherDisplay:10.37,2013-01-21 04:36:00,
2013-01-20 20:41:00,42.4,35.0,30.19,NNW,330,0.0,0.0,75,0.00,CLR,,0.00,WeatherDisplay:10.37,2013-01-21 04:41:00,
2013-01-20 20:47:00,41.5,34.5,30.19,WSW,243,1.1,1.1,76,0.00,CLR,,0.00,WeatherDisplay:10.37,2013-01-21 04:47:00,
2013-01-20 20:52:00,40.8,34.5,30.19,WSW,239,0.0,0.0,78,0.00,CLR,,0.00,WeatherDisplay:10.37,2013-01-21 04:52:00,
2013-01-20 20:57:00,40.7,34.7,30.19,WSW,239,0.0,0.0,79,0.00,CLR,,0.00,WeatherDisplay:10.37,2013-01-21 04:57:00,
2013-01-20 21:00:00,40.9,34.9,30.19,SW,236,1.1,1.1,79,0.00,CLR,,0.00,WeatherDisplay:10.37,2013-01-21 05:00:00,
2013-01-20 21:03:00,40.9,34.9,30.19,SW,236,0.0,0.0,79,0.00,CLR,,0.00,WeatherDisplay:10.37,2013-01-21 05:03:00,
2013-01-20 21:05:00,40.9,34.6,30.19,SW,236,0.0,0.0,78,0.00,CLR,,0.00,WeatherDisplay:10.37,2013-01-21 05:05:00,
2013-01-20 21:10:00,41.1,34.8,30.19,SW,231,2.0,2.0,78,0.00,CLR,,0.00,WeatherDisplay:10.37,2013-01-21 05:10:00,
2013-01-20 21:16:00,40.5,34.8,30.19,WSW,238,2.0,2.0,80,0.00,CLR,,0.00,WeatherDisplay:10.37,2013-01-21 05:16:00,
2013-01-20 21:21:00,40.3,34.6,30.19,WSW,238,0.0,0.0,80,0.00,CLR,,0.00,WeatherDisplay:10.37,2013-01-21 05:21:00,
2013-01-20 21:26:00,40.3,34.6,30.19,SE,133,1.1,1.1,80,0.00,CLR,,0.00,WeatherDisplay:10.37,2013-01-21 05:26:00,
2013-01-20 21:31:00,39.2,32.9,30.19,NNE,13,2.3,2.3,78,0.00,CLR,,0.00,WeatherDisplay:10.37,2013-01-21 05:31:00,
2013-01-20 21:37:00,38.3,33.0,30.19,NNE,26,2.0,2.0,81,0.00,CLR,,0.00,WeatherDisplay:10.37,2013-01-21 05:37:00,
2013-01-20 21:42:00,38.0,33.0,30.19,NNE,26,2.3,2.3,82,0.00,CLR,,0.00,WeatherDisplay:10.37,2013-01-21 05:42:00,
2013-01-20 21:47:00,38.4,33.4,30.20,North,359,2.3,2.3,82,0.00,CLR,,0.00,WeatherDisplay:10.37,2013-01-21 05:47:00,
2013-01-20 21:52:00,38.4,33.1,30.20,WSW,250,1.1,1.1,81,0.00,CLR,,0.00,WeatherDisplay:10.37,2013-01-21 05:52:00,
2013-01-20 21:57:00,38.3,33.3,30.20,WSW,251,0.0,0.0,82,0.00,CLR,,0.00,WeatherDisplay:10.37,2013-01-21 05:57:00,
2013-01-20 22:02:00,38.3,33.3,30.20,WSW,250,0.0,0.0,82,0.00,CLR,,0.00,WeatherDisplay:10.37,2013-01-21 06:02:00,
2013-01-20 22:07:00,38.3,33.3,30.21,WSW,250,1.1,1.1,82,0.00,CLR,,0.00,WeatherDisplay:10.37,2013-01-21 06:07:00,
2013-01-20 22:13:00,39.3,34.0,30.20,ENE,75,2.3,2.3,81,0.00,CLR,,0.00,WeatherDisplay:10.37,2013-01-21 06:13:00,
2013-01-20 22:18:00,39.7,33.7,30.21,ENE,75,0.0,0.0,79,0.00,CLR,,0.00,WeatherDisplay:10.37,2013-01-21 06:18:00,
2013-01-20 22:23:00,39.3,33.3,30.21,ENE,75,1.1,1.1,79,0.00,CLR,,0.00,WeatherDisplay:10.37,2013-01-21 06:23:00,
2013-01-20 22:28:00,38.8,33.5,30.20,ENE,77,1.1,1.1,81,0.00,CLR,,0.00,WeatherDisplay:10.37,2013-01-21 06:28:00,
2013-01-20 22:33:00,38.7,33.4,30.20,ENE,77,0.0,0.0,81,0.00,CLR,,0.00,WeatherDisplay:10.37,2013-01-21 06:33:00,
2013-01-20 22:38:00,38.9,33.6,30.20,ENE,77,0.0,0.0,81,0.00,CLR,,0.00,WeatherDisplay:10.37,2013-01-21 06:38:00,
2013-01-20 22:43:00,39.0,33.7,30.20,ENE,76,0.0,0.0,81,0.00,CLR,,0.00,WeatherDisplay:10.37,2013-01-21 06:43:00,
2013-01-20 22:48:00,38.6,33.3,30.20,ENE,76,0.0,0.0,81,0.00,CLR,,0.00,WeatherDisplay:10.37,2013-01-21 06:48:00,
2013-01-20 22:53:00,36.6,31.6,30.20,ENE,71,2.3,2.3,82,0.00,CLR,,0.00,WeatherDisplay:10.37,2013-01-21 06:53:00,
2013-01-20 22:58:00,36.0,31.9,30.20,NE,43,2.3,2.3,85,0.00,CLR,,0.00,WeatherDisplay:10.37,2013-01-21 06:58:00,
2013-01-20 23:03:00,36.0,31.6,30.20,NNW,348,3.5,3.5,84,0.00,CLR,,0.00,WeatherDisplay:10.37,2013-01-21 07:03:00,
2013-01-20 23:08:00,35.9,31.5,30.20,NW,311,2.3,2.3,84,0.00,CLR,,0.00,WeatherDisplay:10.37,2013-01-21 07:08:00,
2013-01-20 23:13:00,36.2,32.1,30.20,West,278,1.1,1.1,85,0.00,CLR,,0.00,WeatherDisplay:10.37,2013-01-21 07:13:00,
2013-01-20 23:18:00,36.5,32.4,30.20,NNW,329,3.5,3.5,85,0.00,CLR,,0.00,WeatherDisplay:10.37,2013-01-21 07:18:00,
2013-01-20 23:23:00,37.6,33.5,30.20,NW,314,2.0,2.0,85,0.00,CLR,,0.00,WeatherDisplay:10.37,2013-01-21 07:23:00,
2013-01-20 23:29:00,38.4,33.1,30.20,NW,305,0.0,0.0,81,0.00,CLR,,0.00,WeatherDisplay:10.37,2013-01-21 07:29:00,
2013-01-20 23:34:00,38.5,33.2,30.20,WNW,302,1.1,1.1,81,0.00,CLR,,0.00,WeatherDisplay:10.37,2013-01-21 07:34:00,
2013-01-20 23:40:00,36.8,31.5,30.20,ENE,74,2.3,2.3,81,0.00,CLR,,0.00,WeatherDisplay:10.37,2013-01-21 07:40:00,
2013-01-20 23:45:00,36.3,31.9,30.20,NE,50,2.3,2.3,84,0.00,CLR,,0.00,WeatherDisplay:10.37,2013-01-21 07:45:00,
2013-01-20 23:50:00,35.8,31.7,30.19,North,4,0.0,0.0,85,0.00,CLR,,0.00,WeatherDisplay:10.37,2013-01-21 07:50:00,
2013-01-20 23:55:00,36.3,32.8,30.19,NNW,339,1.1,1.1,87,0.00,CLR,,0.00,WeatherDisplay:10.37,2013-01-21 07:55:00,